,,,PA_Meas_PMT16A,,PR_Meas_QMR101_102,,RH_Meas_QMH101,,SR_Meas_QMS101,,TA_Meas_QMH101,,GenWind,,GenWind,
date,time,status,PA,status,PR,status,RH,status,SR,status,TA,status,DirAvg,status,SpdAvg,
2009-10-06, 00:00:04,VALID,1011.44,VALID,0,VALID,94.1171,VALID,0.105969,VALID,24.0429,VALID,94,VALID,0,
2009-10-06, 00:01:04,VALID,1011.47,VALID,0,VALID,94.1247,VALID,0.105969,VALID,24.0429,VALID,94,VALID,0,
2009-10-06, 00:02:04,VALID,1011.49,VALID,0,VALID,94.1323,VALID,0.105969,VALID,24.0235,VALID,94,VALID,0,
2009-10-06, 00:03:04,VALID,1011.45,VALID,0,VALID,94.1247,VALID,0.105969,VALID,24.0235,VALID,94,VALID,0,
2009-10-06, 00:04:04,VALID,1011.48,VALID,0,VALID,94.1323,VALID,0.105969,VALID,24.0235,VALID,94,VALID,0,
2009-10-06, 00:05:04,VALID,1011.46,VALID,0,VALID,94.1476,VALID,0.105969,VALID,24.0429,VALID,94,VALID,0,
2009-10-06, 00:06:04,VALID,1011.45,VALID,0,VALID,94.1552,VALID,0.105969,VALID,24.0235,VALID,94,VALID,0,
2009-10-06, 00:07:04,VALID,1011.44,VALID,0,VALID,94.1857,VALID,0.105969,VALID,24.0429,VALID,94,VALID,0,
2009-10-06, 00:08:04,VALID,1011.45,VALID,0,VALID,94.1857,VALID,0.105969,VALID,24.0235,VALID,94,VALID,0,
2009-10-06, 00:09:04,VALID,1011.46,VALID,0,VALID,94.1857,VALID,0.105969,VALID,24.0429,VALID,94,VALID,0,
2009-10-06, 00:10:04,VALID,1011.44,VALID,0,VALID,94.2086,VALID,0.105969,VALID,24.0624,VALID,94,VALID,0,
2009-10-06, 00:11:04,VALID,1011.45,VALID,0,VALID,94.1933,VALID,0,VALID,24.0429,VALID,94,VALID,0.467187,
2009-10-06, 00:12:04,VALID,1011.46,VALID,0,VALID,94.1704,VALID,0.105969,VALID,24.0819,VALID,102,VALID,0.411719,
2009-10-06, 00:13:04,VALID,1011.45,VALID,0,VALID,94.1704,VALID,0,VALID,24.0819,VALID,118,VALID,0.534766,
2009-10-06, 00:14:04,VALID,1011.44,VALID,0,VALID,94.1171,VALID,0,VALID,24.0837,VALID,118,VALID,0.310156,
2009-10-06, 00:15:04,VALID,1011.44,VALID,0,VALID,94.1018,VALID,0.105969,VALID,24.0624,VALID,136,VALID,0,
2009-10-06, 00:16:04,VALID,1011.45,VALID,0,VALID,94.0484,VALID,0.105969,VALID,24.0235,VALID,137,VALID,0,
2009-10-06, 00:17:04,VALID,1011.41,VALID,0,VALID,94.0484,VALID,0,VALID,24.0235,VALID,137,VALID,0.614844,
2009-10-06, 00:18:04,VALID,1011.42,VALID,0,VALID,94.0408,VALID,0.105969,VALID,24.004,VALID,137,VALID,0.721484,
2009-10-06, 00:19:04,VALID,1011.44,VALID,0,VALID,94.0408,VALID,0,VALID,23.9845,VALID,145,VALID,0.940625,
2009-10-06, 00:20:04,VALID,1011.4,VALID,0,VALID,94.0789,VALID,0.105969,VALID,23.965,VALID,136,VALID,0.711328,
2009-10-06, 00:21:04,VALID,1011.4,VALID,0,VALID,94.0942,VALID,0,VALID,23.9863,VALID,138,VALID,0.614844,
2009-10-06, 00:22:04,VALID,1011.39,VALID,0,VALID,94.1247,VALID,0,VALID,23.9455,VALID,140,VALID,0.641406,
2009-10-06, 00:23:04,VALID,1011.37,VALID,0,VALID,94.1552,VALID,0,VALID,23.9668,VALID,140,VALID,0.346875,
2009-10-06, 00:24:04,VALID,1011.31,VALID,0,VALID,94.1628,VALID,0.105969,VALID,23.9455,VALID,139,VALID,0.407422,
2009-10-06, 00:25:04,VALID,1011.3,VALID,0,VALID,94.2009,VALID,0,VALID,23.9455,VALID,140,VALID,0.519141,
2009-10-06, 00:26:04,VALID,1011.24,VALID,0,VALID,94.2238,VALID,0.105969,VALID,23.9455,VALID,123,VALID,0.639453,
2009-10-06, 00:27:04,VALID,1011.23,VALID,0,VALID,94.2238,VALID,0.105969,VALID,23.9455,VALID,133,VALID,0.896094,
2009-10-06, 00:28:04,VALID,1011.19,VALID,0,VALID,94.2391,VALID,0,VALID,23.9455,VALID,138,VALID,0.873047,
2009-10-06, 00:29:04,VALID,1011.2,VALID,0,VALID,94.2391,VALID,0.105969,VALID,23.9668,VALID,152,VALID,0.526172,
2009-10-06, 00:30:04,VALID,1011.18,VALID,0,VALID,94.2391,VALID,0.105969,VALID,23.926,VALID,140,VALID,0.735547,
2009-10-06, 00:31:04,VALID,1011.19,VALID,0,VALID,94.2467,VALID,0.105969,VALID,23.9455,VALID,140,VALID,0.483984,
2009-10-06, 00:32:04,VALID,1011.17,VALID,0,VALID,94.2238,VALID,0.105969,VALID,23.926,VALID,135,VALID,0.696094,
2009-10-06, 00:33:04,VALID,1011.18,VALID,0,VALID,94.2238,VALID,0.105969,VALID,23.9668,VALID,130,VALID,0.560547,
2009-10-06, 00:34:04,VALID,1011.19,VALID,0,VALID,94.2314,VALID,0.105969,VALID,23.9473,VALID,137,VALID,0.717578,
2009-10-06, 00:35:04,VALID,1011.16,VALID,0,VALID,94.2009,VALID,0,VALID,23.9455,VALID,143,VALID,0.633984,
2009-10-06, 00:36:04,VALID,1011.14,VALID,0,VALID,94.2009,VALID,0.105969,VALID,23.965,VALID,129,VALID,0.179688,
2009-10-06, 00:37:04,VALID,1011.15,VALID,0,VALID,94.1933,VALID,0,VALID,23.9668,VALID,129,VALID,0,
2009-10-06, 00:38:04,VALID,1011.14,VALID,0,VALID,94.1781,VALID,0.105969,VALID,23.965,VALID,129,VALID,0,
2009-10-06, 00:39:04,VALID,1011.13,VALID,0,VALID,94.1476,VALID,0.105969,VALID,23.9845,VALID,129,VALID,0,
2009-10-06, 00:40:04,VALID,1011.11,VALID,0,VALID,94.1781,VALID,0.105969,VALID,23.9845,VALID,129,VALID,0,
2009-10-06, 00:41:04,VALID,1011.09,VALID,0,VALID,94.1628,VALID,0.105969,VALID,23.9845,VALID,125,VALID,0.353125,
2009-10-06, 00:42:04,VALID,1011.07,VALID,0,VALID,94.1247,VALID,0.105969,VALID,23.9845,VALID,125,VALID,0.237109,
2009-10-06, 00:43:04,VALID,1011.06,VALID,0,VALID,94.1247,VALID,0.105969,VALID,24.004,VALID,97,VALID,0.405859,
2009-10-06, 00:44:04,VALID,1011.05,VALID,0,VALID,94.1171,VALID,0.105969,VALID,24.0235,VALID,97,VALID,0.291016,
2009-10-06, 00:45:04,VALID,1011.03,VALID,0,VALID,94.0713,VALID,0,VALID,24.0235,VALID,97,VALID,0.314063,
2009-10-06, 00:46:04,VALID,1011.01,VALID,0,VALID,94.056,VALID,0.105969,VALID,24.0429,VALID,97,VALID,0.158984,
2009-10-06, 00:47:04,VALID,1011.03,VALID,0,VALID,94.056,VALID,0.105969,VALID,24.0235,VALID,97,VALID,0.442578,
2009-10-06, 00:48:04,VALID,1011.03,VALID,0,VALID,94.0103,VALID,0,VALID,24.0624,VALID,99,VALID,0.391016,
2009-10-06, 00:49:04,VALID,1011,VALID,0,VALID,94.0027,VALID,0.105969,VALID,24.0837,VALID,98,VALID,0.570313,
2009-10-06, 00:50:04,VALID,1011.01,VALID,0,VALID,93.9493,VALID,0,VALID,24.0819,VALID,98,VALID,0.639453,
2009-10-06, 00:51:04,VALID,1011,VALID,0,VALID,93.9112,VALID,0.105969,VALID,24.0819,VALID,95,VALID,0.603516,
2009-10-06, 00:52:04,VALID,1010.97,VALID,0,VALID,93.8578,VALID,0,VALID,24.1014,VALID,108,VALID,0.826563,
2009-10-06, 00:53:04,VALID,1010.96,VALID,0,VALID,93.8196,VALID,0,VALID,24.1422,VALID,107,VALID,0.274219,
2009-10-06, 00:54:04,VALID,1010.96,VALID,0,VALID,93.7891,VALID,0,VALID,24.1227,VALID,107,VALID,0.204688,
2009-10-06, 00:55:04,VALID,1010.95,VALID,0,VALID,93.7663,VALID,0,VALID,24.1422,VALID,107,VALID,0.179688,
2009-10-06, 00:56:04,VALID,1010.93,VALID,0,VALID,93.7663,VALID,0,VALID,24.1422,VALID,107,VALID,0,
2009-10-06, 00:57:04,VALID,1010.94,VALID,0,VALID,93.7586,VALID,0,VALID,24.1422,VALID,107,VALID,0,
2009-10-06, 00:58:04,VALID,1010.89,VALID,0,VALID,93.7586,VALID,0,VALID,24.144,VALID,107,VALID,0.207031,
2009-10-06, 00:59:04,VALID,1010.86,VALID,0,VALID,93.7053,VALID,0,VALID,24.1032,VALID,107,VALID,0,
2009-10-06, 01:00:04,VALID,1010.84,VALID,0,VALID,93.69,VALID,0,VALID,24.1245,VALID,107,VALID,0,
2009-10-06, 01:01:04,VALID,1010.85,VALID,0,VALID,93.6442,VALID,0,VALID,24.1032,VALID,107,VALID,0,
2009-10-06, 01:02:04,VALID,1010.85,VALID,0,VALID,93.6519,VALID,0,VALID,24.0837,VALID,107,VALID,0,
2009-10-06, 01:03:04,VALID,1010.84,VALID,0,VALID,93.6748,VALID,0,VALID,24.1032,VALID,107,VALID,0,
2009-10-06, 01:04:04,VALID,1010.84,VALID,0,VALID,93.6824,VALID,0,VALID,24.1032,VALID,107,VALID,0,
2009-10-06, 01:05:04,VALID,1010.84,VALID,0,VALID,93.6976,VALID,0,VALID,24.0837,VALID,107,VALID,0,
2009-10-06, 01:06:04,VALID,1010.87,VALID,0,VALID,93.7586,VALID,0,VALID,24.0837,VALID,107,VALID,0,
2009-10-06, 01:07:04,VALID,1010.86,VALID,0,VALID,93.751,VALID,0,VALID,24.0643,VALID,107,VALID,0,
2009-10-06, 01:08:04,VALID,1010.87,VALID,0,VALID,93.7739,VALID,0,VALID,24.0643,VALID,107,VALID,0,
2009-10-06, 01:09:04,VALID,1010.85,VALID,0,VALID,93.8196,VALID,0,VALID,24.0643,VALID,107,VALID,0,
2009-10-06, 01:10:04,VALID,1010.84,VALID,0,VALID,93.8196,VALID,0,VALID,24.0448,VALID,107,VALID,0,
2009-10-06, 01:11:04,VALID,1010.83,VALID,0,VALID,93.8425,VALID,0,VALID,24.0253,VALID,107,VALID,0,
2009-10-06, 01:12:04,VALID,1010.82,VALID,0,VALID,93.8273,VALID,0,VALID,24.0253,VALID,107,VALID,0,
2009-10-06, 01:13:04,VALID,1010.82,VALID,0,VALID,93.8654,VALID,0,VALID,24.0253,VALID,107,VALID,0,
2009-10-06, 01:14:04,VALID,1010.77,VALID,0,VALID,93.9035,VALID,0,VALID,24.0253,VALID,107,VALID,0,
2009-10-06, 01:15:04,VALID,1010.77,VALID,0,VALID,93.9493,VALID,0,VALID,24.0058,VALID,107,VALID,0,
2009-10-06, 01:16:04,VALID,1010.74,VALID,0,VALID,93.9722,VALID,0,VALID,23.9863,VALID,107,VALID,0,
2009-10-06, 01:17:04,VALID,1010.77,VALID,0,VALID,94.0255,VALID,0,VALID,23.9455,VALID,107,VALID,0,
2009-10-06, 01:18:04,VALID,1010.74,VALID,0,VALID,94.0484,VALID,0,VALID,23.9668,VALID,107,VALID,0,
2009-10-06, 01:19:04,VALID,1010.74,VALID,0,VALID,94.1018,VALID,0,VALID,23.9668,VALID,107,VALID,0,
2009-10-06, 01:20:04,VALID,1010.76,VALID,0,VALID,94.1094,VALID,0,VALID,23.9668,VALID,107,VALID,0,
2009-10-06, 01:21:04,VALID,1010.75,VALID,0,VALID,94.1323,VALID,0,VALID,23.9686,VALID,107,VALID,0,
2009-10-06, 01:22:04,VALID,1010.72,VALID,0,VALID,94.1399,VALID,0,VALID,23.9491,VALID,107,VALID,0,
2009-10-06, 01:23:04,VALID,1010.72,VALID,0,VALID,94.1399,VALID,0,VALID,23.9278,VALID,107,VALID,0,
2009-10-06, 01:24:04,VALID,1010.7,VALID,0,VALID,94.1552,VALID,0.105969,VALID,23.926,VALID,107,VALID,0,
2009-10-06, 01:25:04,VALID,1010.7,VALID,0,VALID,94.1552,VALID,0.105969,VALID,23.9065,VALID,107,VALID,0,
2009-10-06, 01:26:04,VALID,1010.67,VALID,0,VALID,94.1857,VALID,0.105969,VALID,23.9065,VALID,107,VALID,0,
2009-10-06, 01:27:04,VALID,1010.68,VALID,0,VALID,94.2086,VALID,0.105969,VALID,23.9065,VALID,107,VALID,0,
2009-10-06, 01:28:04,VALID,1010.67,VALID,0,VALID,94.2009,VALID,0,VALID,23.9278,VALID,107,VALID,0,
2009-10-06, 01:29:04,VALID,1010.67,VALID,0,VALID,94.2086,VALID,0.105969,VALID,23.926,VALID,107,VALID,0,
2009-10-06, 01:30:04,VALID,1010.67,VALID,0,VALID,94.2467,VALID,0.105969,VALID,23.9047,VALID,107,VALID,0,
2009-10-06, 01:31:04,VALID,1010.68,VALID,0,VALID,94.2314,VALID,0.105969,VALID,23.9065,VALID,107,VALID,0,
2009-10-06, 01:32:04,VALID,1010.69,VALID,0,VALID,94.2619,VALID,0.105969,VALID,23.9065,VALID,107,VALID,0,
2009-10-06, 01:33:04,VALID,1010.69,VALID,0,VALID,94.2696,VALID,0.105969,VALID,23.9065,VALID,107,VALID,0,
2009-10-06, 01:34:04,VALID,1010.68,VALID,0,VALID,94.2772,VALID,0.105969,VALID,23.8871,VALID,107,VALID,0,
2009-10-06, 01:35:04,VALID,1010.68,VALID,0,VALID,94.2924,VALID,0.105969,VALID,23.8871,VALID,107,VALID,0,
2009-10-06, 01:36:04,VALID,1010.67,VALID,0,VALID,94.2848,VALID,0.105969,VALID,23.8676,VALID,107,VALID,0,
2009-10-06, 01:37:04,VALID,1010.67,VALID,0,VALID,94.2772,VALID,0.105969,VALID,23.8481,VALID,110,VALID,0.528906,
2009-10-06, 01:38:04,VALID,1010.69,VALID,0,VALID,94.2696,VALID,0.105969,VALID,23.8481,VALID,112,VALID,0.513672,
2009-10-06, 01:39:04,VALID,1010.69,VALID,0,VALID,94.2772,VALID,0,VALID,23.8499,VALID,120,VALID,0.583984,
2009-10-06, 01:40:04,VALID,1010.68,VALID,0,VALID,94.2848,VALID,0,VALID,23.8304,VALID,120,VALID,0.573828,
2009-10-06, 01:41:04,VALID,1010.67,VALID,0,VALID,94.2924,VALID,0,VALID,23.8109,VALID,120,VALID,0.405078,
2009-10-06, 01:42:04,VALID,1010.68,VALID,0,VALID,94.2924,VALID,0,VALID,23.8304,VALID,120,VALID,0.4,
2009-10-06, 01:43:04,VALID,1010.65,VALID,0,VALID,94.3001,VALID,0,VALID,23.8109,VALID,120,VALID,0.283594,
2009-10-06, 01:44:04,VALID,1010.64,VALID,0,VALID,94.3306,VALID,0,VALID,23.8304,VALID,120,VALID,0.0855469,
2009-10-06, 01:45:04,VALID,1010.65,VALID,0,VALID,94.3458,VALID,0,VALID,23.8304,VALID,120,VALID,0,
2009-10-06, 01:46:04,VALID,1010.65,VALID,0,VALID,94.3229,VALID,0,VALID,23.8517,VALID,120,VALID,0,
2009-10-06, 01:47:04,VALID,1010.67,VALID,0,VALID,94.3611,VALID,0,VALID,23.8304,VALID,120,VALID,0.104297,
2009-10-06, 01:48:04,VALID,1010.64,VALID,0,VALID,94.3458,VALID,0,VALID,23.8304,VALID,136,VALID,0.482812,
2009-10-06, 01:49:04,VALID,1010.65,VALID,0,VALID,94.3611,VALID,0,VALID,23.8304,VALID,140,VALID,0.248828,
2009-10-06, 01:50:04,VALID,1010.66,VALID,0,VALID,94.3916,VALID,0,VALID,23.8304,VALID,140,VALID,0.16875,
2009-10-06, 01:51:04,VALID,1010.65,VALID,0,VALID,94.3763,VALID,0,VALID,23.8517,VALID,140,VALID,0,
2009-10-06, 01:52:04,VALID,1010.64,VALID,0,VALID,94.3839,VALID,0,VALID,23.8304,VALID,140,VALID,0.00078125,
2009-10-06, 01:53:04,VALID,1010.65,VALID,0,VALID,94.3992,VALID,0,VALID,23.8499,VALID,140,VALID,0,
2009-10-06, 01:54:04,VALID,1010.66,VALID,0,VALID,94.3916,VALID,0,VALID,23.8499,VALID,140,VALID,0,
2009-10-06, 01:55:04,VALID,1010.66,VALID,0,VALID,94.4068,VALID,0,VALID,23.8499,VALID,140,VALID,0,
2009-10-06, 01:56:04,VALID,1010.65,VALID,0,VALID,94.4068,VALID,0,VALID,23.8499,VALID,140,VALID,0.102734,
2009-10-06, 01:57:04,VALID,1010.63,VALID,0,VALID,94.4068,VALID,0,VALID,23.8712,VALID,140,VALID,0,
2009-10-06, 01:58:04,VALID,1010.64,VALID,0,VALID,94.4145,VALID,0,VALID,23.8304,VALID,140,VALID,0,
2009-10-06, 01:59:04,VALID,1010.61,VALID,0,VALID,94.4297,VALID,0,VALID,23.8499,VALID,140,VALID,0,
2009-10-06, 02:00:04,VALID,1010.62,VALID,0,VALID,94.4373,VALID,0,VALID,23.8499,VALID,140,VALID,0,
2009-10-06, 02:01:04,VALID,1010.62,VALID,0,VALID,94.445,VALID,0,VALID,23.8499,VALID,140,VALID,0,
2009-10-06, 02:02:04,VALID,1010.59,VALID,0,VALID,94.4373,VALID,0,VALID,23.8694,VALID,140,VALID,0.0710938,
2009-10-06, 02:03:04,VALID,1010.6,VALID,0,VALID,94.4602,VALID,0,VALID,23.8694,VALID,140,VALID,0.178516,
2009-10-06, 02:04:04,VALID,1010.62,VALID,0,VALID,94.4526,VALID,0,VALID,23.8907,VALID,140,VALID,0.179688,
2009-10-06, 02:05:04,VALID,1010.6,VALID,0,VALID,94.4678,VALID,0,VALID,23.8694,VALID,140,VALID,0.329297,
2009-10-06, 02:06:04,VALID,1010.57,VALID,0,VALID,94.4526,VALID,0,VALID,23.8907,VALID,140,VALID,0.404297,
2009-10-06, 02:07:04,VALID,1010.59,VALID,0,VALID,94.4526,VALID,0,VALID,23.8907,VALID,140,VALID,0.427734,
2009-10-06, 02:08:04,VALID,1010.59,VALID,0,VALID,94.4373,VALID,0,VALID,23.8907,VALID,136,VALID,0.546094,
2009-10-06, 02:09:04,VALID,1010.56,VALID,0,VALID,94.4526,VALID,0,VALID,23.8676,VALID,136,VALID,0.653125,
2009-10-06, 02:10:04,VALID,1010.53,VALID,0,VALID,94.4526,VALID,0,VALID,23.8889,VALID,135,VALID,0.618359,
2009-10-06, 02:11:04,VALID,1010.51,VALID,0,VALID,94.4678,VALID,0,VALID,23.9084,VALID,135,VALID,0.254687,
2009-10-06, 02:12:04,VALID,1010.51,VALID,0,VALID,94.445,VALID,0,VALID,23.8676,VALID,135,VALID,0.335156,
2009-10-06, 02:13:04,VALID,1010.49,VALID,0,VALID,94.4831,VALID,0.105969,VALID,23.9084,VALID,135,VALID,0.414453,
2009-10-06, 02:14:04,VALID,1010.44,VALID,0,VALID,94.4678,VALID,0,VALID,23.8889,VALID,135,VALID,0.521094,
2009-10-06, 02:15:04,VALID,1010.45,VALID,0,VALID,94.4602,VALID,0,VALID,23.8676,VALID,135,VALID,0.609375,
2009-10-06, 02:16:04,VALID,1010.43,VALID,0,VALID,94.4526,VALID,0,VALID,23.8481,VALID,136,VALID,0.639844,
2009-10-06, 02:17:04,VALID,1010.43,VALID,0,VALID,94.4526,VALID,0,VALID,23.8676,VALID,136,VALID,0.580078,
2009-10-06, 02:18:04,VALID,1010.43,VALID,0,VALID,94.4526,VALID,0,VALID,23.8286,VALID,136,VALID,0.689844,
2009-10-06, 02:19:04,VALID,1010.43,VALID,0,VALID,94.4755,VALID,0.105969,VALID,23.8481,VALID,136,VALID,0.455859,
2009-10-06, 02:20:04,VALID,1010.4,VALID,0,VALID,94.4755,VALID,0,VALID,23.8286,VALID,136,VALID,0.424219,
2009-10-06, 02:21:04,VALID,1010.41,VALID,0,VALID,94.4755,VALID,0.105969,VALID,23.8286,VALID,136,VALID,0.021875,
2009-10-06, 02:22:04,VALID,1010.4,VALID,0,VALID,94.4678,VALID,0,VALID,23.8091,VALID,136,VALID,0,
2009-10-06, 02:23:04,VALID,1010.41,VALID,0,VALID,94.4678,VALID,0.105969,VALID,23.8091,VALID,136,VALID,0,
2009-10-06, 02:24:04,VALID,1010.41,VALID,0,VALID,94.4755,VALID,0,VALID,23.7914,VALID,136,VALID,0,
2009-10-06, 02:25:04,VALID,1010.39,VALID,0,VALID,94.4907,VALID,0,VALID,23.7914,VALID,136,VALID,0,
2009-10-06, 02:26:04,VALID,1010.41,VALID,0,VALID,94.4831,VALID,0,VALID,23.8127,VALID,136,VALID,0,
2009-10-06, 02:27:04,VALID,1010.41,VALID,0,VALID,94.4831,VALID,0,VALID,23.8322,VALID,136,VALID,0,
2009-10-06, 02:28:04,VALID,1010.4,VALID,0,VALID,94.4678,VALID,0,VALID,23.8322,VALID,136,VALID,0,
2009-10-06, 02:29:04,VALID,1010.38,VALID,0,VALID,94.4678,VALID,0,VALID,23.8127,VALID,136,VALID,0,
2009-10-06, 02:30:04,VALID,1010.37,VALID,0,VALID,94.4602,VALID,0,VALID,23.8109,VALID,125,VALID,0.784375,
2009-10-06, 02:31:04,VALID,1010.38,VALID,0,VALID,94.4678,VALID,0,VALID,23.8304,VALID,125,VALID,0.592188,
2009-10-06, 02:32:04,VALID,1010.34,VALID,0,VALID,94.4907,VALID,0,VALID,23.8499,VALID,125,VALID,0.311719,
2009-10-06, 02:33:04,VALID,1010.34,VALID,0,VALID,94.4907,VALID,0,VALID,23.8304,VALID,125,VALID,0.110547,
2009-10-06, 02:34:04,VALID,1010.3,VALID,0,VALID,94.5212,VALID,0,VALID,23.8499,VALID,125,VALID,0,
2009-10-06, 02:35:04,VALID,1010.29,VALID,0,VALID,94.506,VALID,0,VALID,23.8499,VALID,125,VALID,0.135937,
2009-10-06, 02:36:04,VALID,1010.28,VALID,0,VALID,94.4983,VALID,0,VALID,23.8499,VALID,125,VALID,0.0671875,
2009-10-06, 02:37:04,VALID,1010.26,VALID,0,VALID,94.506,VALID,0,VALID,23.8712,VALID,125,VALID,0.0667969,
2009-10-06, 02:38:04,VALID,1010.26,VALID,0,VALID,94.506,VALID,0,VALID,23.8499,VALID,125,VALID,0,
2009-10-06, 02:39:04,VALID,1010.23,VALID,0,VALID,94.4907,VALID,0.105969,VALID,23.8481,VALID,125,VALID,0,
2009-10-06, 02:40:04,VALID,1010.23,VALID,0,VALID,94.4983,VALID,0.105969,VALID,23.8481,VALID,125,VALID,0,
2009-10-06, 02:41:04,VALID,1010.23,VALID,0,VALID,94.506,VALID,0.105969,VALID,23.8481,VALID,125,VALID,0,
2009-10-06, 02:42:04,VALID,1010.21,VALID,0,VALID,94.5212,VALID,0,VALID,23.8286,VALID,125,VALID,0,
2009-10-06, 02:43:04,VALID,1010.2,VALID,0,VALID,94.506,VALID,0,VALID,23.8304,VALID,125,VALID,0,
2009-10-06, 02:44:04,VALID,1010.17,VALID,0,VALID,94.5136,VALID,0,VALID,23.8091,VALID,125,VALID,0,
2009-10-06, 02:45:04,VALID,1010.18,VALID,0,VALID,94.4907,VALID,0.105969,VALID,23.7896,VALID,125,VALID,0,
2009-10-06, 02:46:04,VALID,1010.17,VALID,0,VALID,94.4907,VALID,0.105969,VALID,23.7896,VALID,125,VALID,0,
2009-10-06, 02:47:04,VALID,1010.17,VALID,0,VALID,94.5136,VALID,0,VALID,23.7701,VALID,125,VALID,0,
2009-10-06, 02:48:04,VALID,1010.17,VALID,0,VALID,94.4983,VALID,0.105969,VALID,23.7701,VALID,125,VALID,0,
2009-10-06, 02:49:04,VALID,1010.14,VALID,0,VALID,94.5288,VALID,0.105969,VALID,23.7701,VALID,125,VALID,0,
2009-10-06, 02:50:04,VALID,1010.16,VALID,0,VALID,94.506,VALID,0.105969,VALID,23.7914,VALID,109,VALID,0.367969,
2009-10-06, 02:51:04,VALID,1010.17,VALID,0,VALID,94.5212,VALID,0,VALID,23.7525,VALID,97,VALID,0.291016,
2009-10-06, 02:52:04,VALID,1010.14,VALID,0,VALID,94.506,VALID,0,VALID,23.7507,VALID,20,VALID,0.525391,
2009-10-06, 02:53:04,VALID,1010.13,VALID,0,VALID,94.506,VALID,0,VALID,23.7312,VALID,359,VALID,0.453906,
2009-10-06, 02:54:04,VALID,1010.14,VALID,0,VALID,94.5288,VALID,0,VALID,23.7117,VALID,2,VALID,0.551172,
2009-10-06, 02:55:04,VALID,1010.13,VALID,0,VALID,94.5288,VALID,0,VALID,23.7135,VALID,2,VALID,0.288281,
2009-10-06, 02:56:04,VALID,1010.15,VALID,0,VALID,94.5136,VALID,0,VALID,23.694,VALID,2,VALID,0.219531,
2009-10-06, 02:57:04,VALID,1010.13,VALID,0,VALID,94.5288,VALID,0,VALID,23.694,VALID,2,VALID,0,
2009-10-06, 02:58:04,VALID,1010.17,VALID,0,VALID,94.506,VALID,0,VALID,23.694,VALID,2,VALID,0.0101562,
2009-10-06, 02:59:04,VALID,1010.18,VALID,0,VALID,94.5365,VALID,0,VALID,23.6745,VALID,2,VALID,0,
2009-10-06, 03:00:04,VALID,1010.17,VALID,0,VALID,94.5365,VALID,0,VALID,23.655,VALID,2,VALID,0,
2009-10-06, 03:01:04,VALID,1010.19,VALID,0,VALID,94.5593,VALID,0,VALID,23.6356,VALID,2,VALID,0.0753906,
2009-10-06, 03:02:04,VALID,1010.21,VALID,0,VALID,94.5593,VALID,0,VALID,23.6161,VALID,2,VALID,0,
2009-10-06, 03:03:04,VALID,1010.21,VALID,0,VALID,94.5593,VALID,0,VALID,23.5966,VALID,2,VALID,0,
2009-10-06, 03:04:04,VALID,1010.19,VALID,0,VALID,94.5441,VALID,0,VALID,23.5966,VALID,2,VALID,0.101953,
2009-10-06, 03:05:04,VALID,1010.17,VALID,0,VALID,94.5441,VALID,0,VALID,23.5966,VALID,2,VALID,0,
2009-10-06, 03:06:04,VALID,1010.16,VALID,0,VALID,94.5593,VALID,0,VALID,23.5966,VALID,2,VALID,0,
2009-10-06, 03:07:04,VALID,1010.14,VALID,0,VALID,94.5593,VALID,0,VALID,23.5771,VALID,2,VALID,0,
2009-10-06, 03:08:04,VALID,1010.12,VALID,0,VALID,94.5517,VALID,0,VALID,23.5966,VALID,2,VALID,0,
2009-10-06, 03:09:04,VALID,1010.12,VALID,0,VALID,94.567,VALID,0,VALID,23.5966,VALID,2,VALID,0,
2009-10-06, 03:10:04,VALID,1010.11,VALID,0,VALID,94.5441,VALID,0,VALID,23.5771,VALID,2,VALID,0.240234,
2009-10-06, 03:11:04,VALID,1010.11,VALID,0,VALID,94.5441,VALID,0,VALID,23.5966,VALID,2,VALID,0,
2009-10-06, 03:12:04,VALID,1010.09,VALID,0,VALID,94.5517,VALID,0,VALID,23.5966,VALID,2,VALID,0.242578,
2009-10-06, 03:13:04,VALID,1010.05,VALID,0,VALID,94.5517,VALID,0,VALID,23.5771,VALID,2,VALID,0.209375,
2009-10-06, 03:14:04,VALID,1010.04,VALID,0,VALID,94.5593,VALID,0,VALID,23.5771,VALID,2,VALID,0.223047,
2009-10-06, 03:15:04,VALID,1010.04,VALID,0,VALID,94.5365,VALID,0,VALID,23.5984,VALID,2,VALID,0.0683594,
2009-10-06, 03:16:04,VALID,1010.03,VALID,0,VALID,94.5517,VALID,0,VALID,23.5771,VALID,2,VALID,0.100391,
2009-10-06, 03:17:04,VALID,1010.01,VALID,0,VALID,94.5593,VALID,0,VALID,23.5789,VALID,2,VALID,0,
2009-10-06, 03:18:04,VALID,1010.02,VALID,0,VALID,94.5822,VALID,0,VALID,23.5576,VALID,2,VALID,0.003125,
2009-10-06, 03:19:04,VALID,1010.01,VALID,0,VALID,94.5517,VALID,0,VALID,23.5381,VALID,2,VALID,0.0210938,
2009-10-06, 03:20:04,VALID,1010.01,VALID,0,VALID,94.5441,VALID,0,VALID,23.5576,VALID,2,VALID,0.274219,
2009-10-06, 03:21:04,VALID,1010,VALID,0,VALID,94.5517,VALID,0,VALID,23.5576,VALID,2,VALID,0,
2009-10-06, 03:22:04,VALID,1009.99,VALID,0,VALID,94.5746,VALID,0,VALID,23.5363,VALID,2,VALID,0,
2009-10-06, 03:23:04,VALID,1009.99,VALID,0,VALID,94.5517,VALID,0,VALID,23.5576,VALID,2,VALID,0,
2009-10-06, 03:24:04,VALID,1009.97,VALID,0,VALID,94.5517,VALID,0.105969,VALID,23.5558,VALID,2,VALID,0,
2009-10-06, 03:25:04,VALID,1009.98,VALID,0,VALID,94.5593,VALID,0.105969,VALID,23.5771,VALID,2,VALID,0,
2009-10-06, 03:26:04,VALID,1009.97,VALID,0,VALID,94.5365,VALID,0.105969,VALID,23.5558,VALID,2,VALID,0,
2009-10-06, 03:27:04,VALID,1009.99,VALID,0,VALID,94.5517,VALID,0.105969,VALID,23.5558,VALID,2,VALID,0,
2009-10-06, 03:28:04,VALID,1009.99,VALID,0,VALID,94.5441,VALID,0,VALID,23.5558,VALID,2,VALID,0,
2009-10-06, 03:29:04,VALID,1009.98,VALID,0,VALID,94.5441,VALID,0.105969,VALID,23.5558,VALID,2,VALID,0,
2009-10-06, 03:30:04,VALID,1010,VALID,0,VALID,94.5365,VALID,0,VALID,23.5558,VALID,2,VALID,0,
2009-10-06, 03:31:04,VALID,1009.99,VALID,0,VALID,94.5441,VALID,0,VALID,23.5771,VALID,2,VALID,0,
2009-10-06, 03:32:04,VALID,1010,VALID,0,VALID,94.5365,VALID,0.105969,VALID,23.5753,VALID,2,VALID,0,
2009-10-06, 03:33:04,VALID,1009.98,VALID,0,VALID,94.5441,VALID,0.105969,VALID,23.5753,VALID,2,VALID,0,
2009-10-06, 03:34:04,VALID,1010,VALID,0,VALID,94.5593,VALID,0.105969,VALID,23.5558,VALID,2,VALID,0,
2009-10-06, 03:35:04,VALID,1009.99,VALID,0,VALID,94.5441,VALID,0,VALID,23.5558,VALID,2,VALID,0,
2009-10-06, 03:36:04,VALID,1010,VALID,0,VALID,94.567,VALID,0.105969,VALID,23.5558,VALID,2,VALID,0,
2009-10-06, 03:37:04,VALID,1010.03,VALID,0,VALID,94.5822,VALID,0.105969,VALID,23.5576,VALID,2,VALID,0,
2009-10-06, 03:38:04,VALID,1010.02,VALID,0,VALID,94.5593,VALID,0.105969,VALID,23.5558,VALID,2,VALID,0,
2009-10-06, 03:39:04,VALID,1010.02,VALID,0,VALID,94.5593,VALID,0.105969,VALID,23.5558,VALID,2,VALID,0,
2009-10-06, 03:40:04,VALID,1010.01,VALID,0,VALID,94.567,VALID,0.105969,VALID,23.5558,VALID,2,VALID,0,
2009-10-06, 03:41:04,VALID,1010.03,VALID,0,VALID,94.5517,VALID,0.105969,VALID,23.5558,VALID,2,VALID,0,
2009-10-06, 03:42:04,VALID,1010.02,VALID,0,VALID,94.5593,VALID,0.105969,VALID,23.5558,VALID,2,VALID,0,
2009-10-06, 03:43:04,VALID,1010.03,VALID,0,VALID,94.5288,VALID,0.105969,VALID,23.5363,VALID,2,VALID,0,
2009-10-06, 03:44:04,VALID,1010.04,VALID,0,VALID,94.5517,VALID,0,VALID,23.5558,VALID,2,VALID,0,
2009-10-06, 03:45:04,VALID,1010.03,VALID,0,VALID,94.5593,VALID,0,VALID,23.5558,VALID,2,VALID,0,
2009-10-06, 03:46:04,VALID,1010.04,VALID,0,VALID,94.5746,VALID,0.105969,VALID,23.5363,VALID,2,VALID,0,
2009-10-06, 03:47:04,VALID,1010.05,VALID,0,VALID,94.5517,VALID,0.105969,VALID,23.5558,VALID,2,VALID,0,
2009-10-06, 03:48:04,VALID,1010.08,VALID,0,VALID,94.567,VALID,0,VALID,23.5558,VALID,2,VALID,0,